| time (UTC) | temp F | wind direction | speed MPH | gust MPH | rain 1hr in | rain 24hr in | rain mn in | humidity % | barometer mb |
| 20260831172031 | 74 | 271 | 1.0 | 6.0 | 0.00 | 0.05 | 0.01 | 56 | 1014.0 |
| 20260831171528 | 74 | 258 | 1.0 | 5.0 | 0.00 | 0.05 | 0.01 | 63 | 1014.0 |
| 20260831171028 | 74 | 304 | 1.0 | 5.0 | 0.00 | 0.05 | 0.01 | 63 | 1013.9 |
| 20260831170528 | 74 | 239 | 2.0 | 5.0 | 0.00 | 0.05 | 0.01 | 62 | 1014.0 |
| 20260831170027 | 74 | 244 | 1.0 | 5.0 | 0.00 | 0.05 | 0.01 | 58 | 1014.1 |
| 20260831165525 | 73 | 313 | 2.0 | 5.0 | 0.00 | 0.05 | 0.01 | 62 | 1014.1 |
| 20260831165025 | 73 | 261 | 0.0 | 4.0 | 0.00 | 0.05 | 0.01 | 65 | 1014.2 |
| 20260831164525 | 73 | 279 | 1.0 | 7.0 | 0.00 | 0.05 | 0.01 | 69 | 1014.2 |
| 20260831164023 | 73 | 286 | 3.0 | 7.0 | 0.00 | 0.05 | 0.01 | 63 | 1014.3 |
| 20260831163524 | 72 | 327 | 2.0 | 6.0 | 0.00 | 0.05 | 0.01 | 68 | 1014.3 |
| 20260831163021 | 72 | 238 | 2.0 | 6.0 | 0.00 | 0.05 | 0.01 | 62 | 1014.4 |
| 20260831162525 | 72 | 84 | 1.0 | 5.0 | 0.00 | 0.05 | 0.01 | 70 | 1014.4 |
| 20260831162020 | 72 | 355 | 1.0 | 4.0 | 0.00 | 0.05 | 0.01 | 71 | 1014.4 |
| 20260831161520 | 72 | 223 | 2.0 | 4.0 | 0.00 | 0.05 | 0.01 | 65 | 1014.5 |
| 20260831161019 | 72 | 296 | 2.0 | 5.0 | 0.00 | 0.05 | 0.01 | 78 | 1014.4 |
| 20260831160518 | 71 | 253 | 2.0 | 6.0 | 0.00 | 0.05 | 0.01 | 68 | 1014.5 |
| 20260831160026 | 71 | 260 | 0.0 | 5.0 | 0.00 | 0.05 | 0.01 | 71 | 1014.5 |
| 20260831155517 | 71 | 277 | 1.0 | 4.0 | 0.00 | 0.05 | 0.01 | 70 | 1014.6 |
| 20260831155022 | 71 | 224 | 1.0 | 5.0 | 0.00 | 0.05 | 0.01 | 67 | 1014.7 |
| 20260831154518 | 71 | 346 | 2.0 | 4.0 | 0.00 | 0.05 | 0.01 | 74 | 1014.7 |
| 20260831154014 | 71 | 313 | 0.0 | 4.0 | 0.00 | 0.05 | 0.01 | 74 | 1014.6 |
| 20260831153513 | 70 | 305 | 2.0 | 4.0 | 0.00 | 0.05 | 0.01 | 74 | 1014.6 |
| 20260831153012 | 69 | 151 | 0.0 | 2.0 | 0.00 | 0.05 | 0.01 | 73 | 1014.6 |
| 20260831152511 | 69 | 146 | 0.0 | 3.0 | 0.00 | 0.05 | 0.01 | 70 | 1014.6 |
| 20260831152009 | 68 | 168 | 1.0 | 4.0 | 0.00 | 0.05 | 0.01 | 74 | 1014.7 |
| 20260831151508 | 67 | 316 | 0.0 | 2.0 | 0.00 | 0.05 | 0.01 | 72 | 1014.7 |
| 20260831151011 | 67 | 246 | 0.0 | 2.0 | 0.00 | 0.05 | 0.01 | 73 | 1014.7 |
| 20260831150505 | 67 | 240 | 0.0 | 3.0 | 0.00 | 0.05 | 0.01 | 79 | 1014.7 |
| 20260831150008 | 66 | 213 | 0.0 | 3.0 | 0.00 | 0.14 | 0.01 | 76 | 1014.8 |
| 20260831145503 | 66 | 294 | 1.0 | 3.0 | 0.00 | 0.14 | 0.01 | 78 | 1014.8 |
| 20260831145003 | 66 | 296 | 1.0 | 3.0 | 0.00 | 0.14 | 0.01 | 82 | 1014.8 |
| 20260831144502 | 66 | 245 | 1.0 | 4.0 | 0.00 | 0.14 | 0.01 | 80 | 1014.8 |
| 20260831144001 | 66 | 230 | 1.0 | 4.0 | 0.00 | 0.14 | 0.01 | 82 | 1014.7 |
| 20260831143600 | 65 | 289 | 1.0 | 3.0 | 0.00 | 0.14 | 0.01 | 85 | 1014.7 |
| 20260831143108 | 64 | 331 | 0.0 | 3.0 | 0.00 | 0.14 | 0.01 | 82 | 1014.6 |
| 20260831142558 | 64 | 146 | 0.0 | 3.0 | 0.00 | 0.14 | 0.01 | 85 | 1014.7 |
| 20260831142059 | 64 | 222 | 0.0 | 2.0 | 0.00 | 0.14 | 0.01 | 87 | 1014.7 |
| 20260831141555 | 63 | 240 | 0.0 | 1.0 | 0.00 | 0.14 | 0.01 | 88 | 1014.7 |
| 20260831141053 | 63 | 240 | 0.0 | 2.0 | 0.00 | 0.14 | 0.01 | 92 | 1014.9 |
| 20260831140552 | 62 | 300 | 0.0 | 2.0 | 0.00 | 0.14 | 0.01 | 90 | 1014.9 |
| 20260831140051 | 61 | 300 | 0.0 | 2.0 | 0.00 | 0.14 | 0.01 | 93 | 1015.0 |
| 20260831135550 | 61 | 300 | 1.0 | 2.0 | 0.00 | 0.14 | 0.01 | 93 | 1015.1 |
| 20260831135049 | 60 | 164 | 0.0 | 2.0 | 0.00 | 0.14 | 0.01 | 94 | 1015.2 |
| 20260831134556 | 60 | 273 | 0.0 | 2.0 | 0.00 | 0.14 | 0.01 | 95 | 1015.2 |
| 20260831134049 | 60 | 245 | 0.0 | 2.0 | 0.00 | 0.14 | 0.01 | 95 | 1015.2 |
| 20260831133545 | 59 | 291 | 1.0 | 2.0 | 0.00 | 0.14 | 0.01 | 96 | 1015.2 |
| 20260831133045 | 59 | 233 | 0.0 | 2.0 | 0.00 | 0.14 | 0.01 | 99 | 1015.2 |
| 20260831132545 | 59 | 233 | 0.0 | 2.0 | 0.00 | 0.14 | 0.01 | 99 | 1015.2 |
| 20260831132044 | 59 | 233 | 0.0 | 1.0 | 0.00 | 0.14 | 0.01 | 100 | 1015.3 |
| 20260831131545 | 59 | 233 | 0.0 | 1.0 | 0.00 | 0.14 | 0.01 | 100 | 1015.4 |
| 20260831131043 | 58 | 233 | 0.0 | 1.0 | 0.00 | 0.14 | 0.01 | 100 | 1015.4 |
| 20260831130543 | 59 | 233 | 0.0 | 2.0 | 0.00 | 0.14 | 0.01 | 100 | 1015.5 |
| 20260831130048 | 59 | 142 | 0.0 | 2.0 | 0.00 | 0.14 | 0.01 | 100 | 1015.4 |
| 20260831125542 | 58 | 142 | 0.0 | 2.0 | 0.00 | 0.14 | 0.01 | 100 | 1015.4 |
| 20260831125044 | 58 | 127 | 0.0 | 1.0 | 0.00 | 0.14 | 0.01 | 100 | 1015.4 |
| 20260831124547 | 57 | 127 | 0.0 | 0.0 | 0.00 | 0.14 | 0.01 | 99 | 1015.4 |
| 20260831124039 | 56 | 127 | 0.0 | 0.0 | 0.00 | 0.14 | 0.01 | 100 | 1015.4 |
| 20260831123538 | 55 | 127 | 0.0 | 0.0 | 0.00 | 0.14 | 0.01 | 99 | 1015.4 |
| 20260831123038 | 55 | 127 | 0.0 | 0.0 | 0.00 | 0.14 | 0.01 | 99 | 1015.5 |
| 20260831122538 | 53 | 127 | 0.0 | 0.0 | 0.00 | 0.14 | 0.01 | 99 | 1015.5 |
| 20260831122038 | 53 | 127 | 0.0 | 0.0 | 0.00 | 0.14 | 0.01 | 99 | 1015.4 |
| 20260831121546 | 52 | 127 | 0.0 | 0.0 | 0.00 | 0.14 | 0.01 | 99 | 1015.5 |
| 20260831121038 | 52 | 127 | 0.0 | 0.0 | 0.00 | 0.14 | 0.01 | 98 | 1015.4 |
| 20260831120538 | 52 | 127 | 0.0 | 0.0 | 0.00 | 0.14 | 0.01 | 98 | 1015.4 |
| 20260831120039 | 51 | 127 | 0.0 | 0.0 | 0.00 | 0.14 | 0.01 | 98 | 1015.3 |
| 20260831115537 | 51 | 127 | 0.0 | 0.0 | 0.00 | 0.15 | 0.01 | 98 | 1015.3 |
| 20260831115036 | 51 | 127 | 0.0 | 0.0 | 0.00 | 0.15 | 0.01 | 98 | 1015.2 |
| 20260831114536 | 51 | 127 | 0.0 | 0.0 | 0.00 | 0.15 | 0.01 | 98 | 1015.1 |
| 20260831114036 | 51 | 127 | 0.0 | 0.0 | 0.00 | 0.15 | 0.01 | 98 | 1015.1 |
| 20260831113536 | 51 | 127 | 0.0 | 0.0 | 0.00 | 0.15 | 0.01 | 98 | 1015.2 |
| 20260831113035 | 51 | 127 | 0.0 | 0.0 | 0.00 | 0.15 | 0.01 | 98 | 1015.1 |
| 20260831112535 | 50 | 127 | 0.0 | 0.0 | 0.00 | 0.15 | 0.01 | 98 | 1015.0 |
| 20260831112033 | 50 | 127 | 0.0 | 0.0 | 0.00 | 0.15 | 0.01 | 97 | 1015.0 |
| 20260831111534 | 50 | 127 | 0.0 | 0.0 | 0.00 | 0.15 | 0.01 | 97 | 1015.0 |
| 20260831111033 | 50 | 127 | 0.0 | 0.0 | 0.00 | 0.15 | 0.01 | 97 | 1014.8 |
| 20260831110532 | 50 | 127 | 0.0 | 0.0 | 0.00 | 0.15 | 0.01 | 97 | 1014.8 |
| 20260831110033 | 50 | 127 | 0.0 | 1.0 | 0.00 | 0.15 | 0.01 | 97 | 1014.8 |
| 20260831105532 | 50 | 127 | 0.0 | 1.0 | 0.00 | 0.18 | 0.01 | 97 | 1014.7 |
| 20260831105030 | 50 | 127 | 0.0 | 1.0 | 0.00 | 0.18 | 0.01 | 97 | 1014.6 |
| 20260831104531 | 50 | 127 | 0.0 | 1.0 | 0.00 | 0.18 | 0.01 | 97 | 1014.5 |
| 20260831104029 | 50 | 127 | 0.0 | 1.0 | 0.00 | 0.18 | 0.01 | 97 | 1014.5 |
| 20260831103528 | 50 | 127 | 0.0 | 2.0 | 0.00 | 0.18 | 0.01 | 97 | 1014.4 |
| 20260831103032 | 50 | 127 | 0.0 | 2.0 | 0.00 | 0.18 | 0.01 | 97 | 1014.4 |
| 20260831102527 | 50 | 127 | 0.0 | 1.0 | 0.00 | 0.18 | 0.01 | 97 | 1014.3 |
| 20260831102027 | 50 | 127 | 0.0 | 1.0 | 0.00 | 0.18 | 0.01 | 97 | 1014.3 |
| 20260831101527 | 50 | 127 | 0.0 | 1.0 | 0.00 | 0.18 | 0.01 | 97 | 1014.3 |
| 20260831101026 | 50 | 127 | 0.0 | 0.0 | 0.00 | 0.18 | 0.01 | 97 | 1014.4 |
| 20260831100524 | 50 | 127 | 0.0 | 0.0 | 0.00 | 0.18 | 0.01 | 97 | 1014.3 |
| 20260831100032 | 50 | 127 | 0.0 | 0.0 | 0.00 | 0.18 | 0.01 | 97 | 1014.2 |
| 20260831095524 | 50 | 127 | 0.0 | 0.0 | 0.00 | 0.18 | 0.01 | 97 | 1014.2 |
| 20260831095028 | 50 | 127 | 0.0 | 0.0 | 0.00 | 0.18 | 0.01 | 97 | 1014.2 |
| 20260831094529 | 50 | 127 | 0.0 | 0.0 | 0.00 | 0.18 | 0.01 | 97 | 1014.1 |
| 20260831094024 | 50 | 127 | 0.0 | 0.0 | 0.00 | 0.18 | 0.01 | 97 | 1014.2 |
| 20260831093522 | 50 | 127 | 0.0 | 0.0 | 0.00 | 0.18 | 0.01 | 97 | 1014.1 |
| 20260831093037 | 50 | 127 | 0.0 | 1.0 | 0.00 | 0.18 | 0.01 | 97 | 1014.0 |
| 20260831092525 | 50 | 127 | 0.0 | 1.0 | 0.01 | 0.18 | 0.01 | 96 | 1014.0 |
| 20260831092024 | 50 | 127 | 0.0 | 1.0 | 0.01 | 0.18 | 0.01 | 96 | 1013.9 |
| 20260831091519 | 51 | 127 | 0.0 | 0.0 | 0.01 | 0.18 | 0.01 | 96 | 1013.8 |
| 20260831091018 | 51 | 127 | 0.0 | 0.0 | 0.01 | 0.18 | 0.01 | 96 | 1013.8 |
| 20260831090520 | 51 | 127 | 0.0 | 0.0 | 0.01 | 0.18 | 0.01 | 97 | 1013.7 |
| 20260831090018 | 51 | 127 | 0.0 | 0.0 | 0.01 | 0.18 | 0.01 | 97 | 1013.7 |
| 20260831085518 | 51 | 127 | 0.0 | 0.0 | 0.01 | 0.18 | 0.01 | 97 | 1013.7 |
| 20260831085021 | 51 | 127 | 0.0 | 0.0 | 0.01 | 0.18 | 0.01 | 97 | 1013.6 |
| 20260831084519 | 51 | 127 | 0.0 | 0.0 | 0.01 | 0.18 | 0.01 | 97 | 1013.6 |
| 20260831084016 | 51 | 127 | 0.0 | 0.0 | 0.01 | 0.18 | 0.01 | 97 | 1013.6 |
| 20260831083515 | 51 | 127 | 0.0 | 0.0 | 0.01 | 0.18 | 0.01 | 96 | 1013.7 |
| 20260831083015 | 51 | 127 | 0.0 | 0.0 | 0.01 | 0.18 | 0.01 | 96 | 1013.8 |
| 20260831082516 | 51 | 127 | 0.0 | 0.0 | 0.00 | 0.17 | 0.00 | 96 | 1013.8 |
| 20260831082114 | 51 | 127 | 0.0 | 0.0 | 0.00 | 0.17 | 0.00 | 96 | 1013.8 |
| 20260831081514 | 51 | 127 | 0.0 | 0.0 | 0.00 | 0.17 | 0.00 | 96 | 1013.7 |
| 20260831081012 | 51 | 127 | 0.0 | 0.0 | 0.00 | 0.17 | 0.00 | 96 | 1013.7 |
| 20260831080512 | 51 | 127 | 0.0 | 0.0 | 0.00 | 0.17 | 0.00 | 96 | 1013.7 |
| 20260831075511 | 52 | 127 | 0.0 | 0.0 | 0.00 | 0.17 | 0.00 | 96 | 1013.6 |
| 20260831075015 | 52 | 127 | 0.0 | 0.0 | 0.00 | 0.17 | 0.00 | 96 | 1013.7 |
| 20260831074510 | 52 | 127 | 0.0 | 0.0 | 0.00 | 0.17 | 0.00 | 96 | 1013.6 |
| 20260831074014 | 52 | 127 | 0.0 | 0.0 | 0.00 | 0.17 | 0.00 | 96 | 1013.5 |
| 20260831073511 | 52 | 127 | 0.0 | 0.0 | 0.00 | 0.17 | 0.00 | 96 | 1013.5 |
| 20260831073009 | 52 | 127 | 0.0 | 0.0 | 0.00 | 0.17 | 0.00 | 96 | 1013.5 |
| 20260831072508 | 52 | 127 | 0.0 | 0.0 | 0.00 | 0.17 | 0.00 | 96 | 1013.5 |
| 20260831072010 | 52 | 127 | 0.0 | 0.0 | 0.00 | 0.17 | 0.00 | 96 | 1013.5 |
| 20260831071508 | 52 | 127 | 0.0 | 0.0 | 0.00 | 0.17 | 0.00 | 96 | 1013.5 |
| 20260831071007 | 52 | 127 | 0.0 | 0.0 | 0.00 | 0.17 | 0.00 | 96 | 1013.6 |
| 20260831070511 | 52 | 127 | 0.0 | 0.0 | 0.00 | 0.17 | 0.00 | 96 | 1013.6 |
| 20260831070007 | 52 | 127 | 0.0 | 0.0 | 0.00 | 0.17 | 0.00 | 96 | 1013.5 |
| 20260831065509 | 52 | 127 | 0.0 | 0.0 | 0.00 | 0.17 | 0.00 | 96 | 1013.4 |
| 20260831065005 | 52 | 127 | 0.0 | 0.0 | 0.00 | 0.17 | 0.00 | 96 | 1013.3 |
| 20260831064505 | 52 | 127 | 0.0 | 0.0 | 0.00 | 0.17 | 0.00 | 96 | 1013.4 |
| 20260831064006 | 53 | 127 | 0.0 | 0.0 | 0.00 | 0.17 | 0.00 | 96 | 1013.4 |
| 20260831063504 | 53 | 127 | 0.0 | 0.0 | 0.00 | 0.17 | 0.00 | 96 | 1013.3 |
| 20260831063004 | 53 | 127 | 0.0 | 1.0 | 0.00 | 0.17 | 0.00 | 96 | 1013.4 |
| 20260831062503 | 53 | 127 | 0.0 | 1.0 | 0.00 | 0.17 | 0.00 | 96 | 1013.5 |
| 20260831062003 | 53 | 127 | 0.0 | 0.0 | 0.00 | 0.17 | 0.00 | 96 | 1013.5 |
| 20260831061501 | 53 | 127 | 0.0 | 0.0 | 0.00 | 0.17 | 0.00 | 96 | 1013.6 |
| 20260831061103 | 53 | 127 | 0.0 | 0.0 | 0.00 | 0.17 | 0.00 | 96 | 1013.6 |
| 20260831060559 | 53 | 127 | 0.0 | 0.0 | 0.00 | 0.17 | 0.00 | 96 | 1013.6 |
| 20260831060106 | 53 | 127 | 0.0 | 1.0 | 0.00 | 0.17 | 0.00 | 95 | 1013.6 |
| 20260831055558 | 53 | 127 | 0.0 | 1.0 | 0.00 | 0.17 | 0.00 | 95 | 1013.7 |
| 20260831055101 | 54 | 127 | 0.0 | 0.0 | 0.00 | 0.17 | 0.00 | 95 | 1013.7 |
| 20260831054557 | 54 | 127 | 0.0 | 1.0 | 0.00 | 0.17 | 0.00 | 95 | 1013.6 |
| 20260831054059 | 54 | 127 | 0.0 | 1.0 | 0.00 | 0.17 | 0.00 | 95 | 1013.7 |
| 20260831053557 | 54 | 127 | 0.0 | 0.0 | 0.00 | 0.17 | 0.00 | 95 | 1013.7 |
| 20260831053056 | 54 | 127 | 0.0 | 0.0 | 0.00 | 0.17 | 0.00 | 95 | 1013.7 |
| 20260831052554 | 54 | 127 | 0.0 | 0.0 | 0.00 | 0.17 | 0.00 | 95 | 1013.7 |
| 20260831052054 | 54 | 127 | 0.0 | 0.0 | 0.00 | 0.17 | 0.00 | 95 | 1013.7 |
| 20260831051602 | 55 | 127 | 0.0 | 0.0 | 0.00 | 0.17 | 0.00 | 95 | 1013.8 |
| 20260831051052 | 55 | 127 | 0.0 | 0.0 | 0.00 | 0.17 | 0.00 | 95 | 1013.7 |
| 20260831050551 | 55 | 127 | 0.0 | 0.0 | 0.00 | 0.17 | 0.00 | 95 | 1013.8 |
| 20260831050050 | 55 | 127 | 0.0 | 0.0 | 0.00 | 0.17 | 0.00 | 95 | 1013.7 |
| 20260831045551 | 55 | 127 | 0.0 | 0.0 | 0.00 | 0.17 | 0.00 | 95 | 1013.6 |
| 20260831045049 | 55 | 127 | 0.0 | 0.0 | 0.00 | 0.17 | 0.00 | 95 | 1013.6 |
| 20260831044550 | 56 | 127 | 0.0 | 0.0 | 0.00 | 0.17 | 0.00 | 95 | 1013.6 |
| 20260831044048 | 56 | 127 | 0.0 | 0.0 | 0.00 | 0.17 | 0.00 | 95 | 1013.5 |
| 20260831043546 | 56 | 127 | 0.0 | 0.0 | 0.00 | 0.17 | 0.00 | 95 | 1013.5 |
| 20260831043047 | 56 | 127 | 0.0 | 0.0 | 0.00 | 0.17 | 0.00 | 95 | 1013.5 |
| 20260831042545 | 56 | 127 | 0.0 | 0.0 | 0.00 | 0.17 | 0.00 | 95 | 1013.6 |
| 20260831042047 | 57 | 127 | 0.0 | 0.0 | 0.00 | 0.17 | 0.00 | 95 | 1013.5 |
| 20260831041544 | 57 | 127 | 0.0 | 0.0 | 0.00 | 0.17 | 0.00 | 95 | 1013.4 |
| 20260831041043 | 57 | 127 | 0.0 | 0.0 | 0.00 | 0.17 | 0.00 | 95 | 1013.3 |
| 20260831040543 | 57 | 127 | 0.0 | 0.0 | 0.00 | 0.17 | 0.00 | 95 | 1013.2 |
| 20260831040042 | 57 | 127 | 0.0 | 0.0 | 0.00 | 0.17 | 0.00 | 95 | 1013.3 |
| 20260831035541 | 57 | 127 | 0.0 | 0.0 | 0.00 | 0.17 | 0.17 | 95 | 1013.2 |
| 20260831035040 | 57 | 127 | 0.0 | 0.0 | 0.00 | 0.17 | 0.17 | 95 | 1013.2 |
| 20260831034540 | 57 | 127 | 0.0 | 0.0 | 0.00 | 0.17 | 0.17 | 95 | 1013.2 |
| 20260831034040 | 57 | 127 | 0.0 | 0.0 | 0.00 | 0.17 | 0.17 | 95 | 1013.2 |
| 20260831033541 | 58 | 127 | 0.0 | 0.0 | 0.00 | 0.17 | 0.17 | 95 | 1013.1 |
| 20260831033049 | 58 | 127 | 0.0 | 0.0 | 0.00 | 0.17 | 0.17 | 95 | 1013.0 |
| 20260831032538 | 58 | 127 | 0.0 | 0.0 | 0.00 | 0.17 | 0.17 | 95 | 1012.9 |
| 20260831032038 | 58 | 127 | 0.0 | 1.0 | 0.00 | 0.17 | 0.17 | 95 | 1012.8 |
| 20260831031537 | 58 | 127 | 0.0 | 1.0 | 0.00 | 0.17 | 0.17 | 95 | 1012.8 |
| 20260831031037 | 58 | 127 | 0.0 | 0.0 | 0.00 | 0.17 | 0.17 | 95 | 1012.9 |
| 20260831030540 | 58 | 127 | 0.0 | 0.0 | 0.00 | 0.17 | 0.17 | 95 | 1012.8 |
| 20260831030039 | 58 | 127 | 0.0 | 1.0 | 0.00 | 0.17 | 0.17 | 95 | 1012.6 |
| 20260831025536 | 58 | 127 | 0.0 | 1.0 | 0.00 | 0.17 | 0.17 | 95 | 1012.7 |
| 20260831025036 | 58 | 127 | 0.0 | 0.0 | 0.00 | 0.17 | 0.17 | 95 | 1012.6 |
| 20260831024536 | 58 | 127 | 0.0 | 0.0 | 0.00 | 0.17 | 0.17 | 94 | 1012.7 |
| 20260831024035 | 59 | 127 | 0.0 | 1.0 | 0.01 | 0.17 | 0.17 | 94 | 1012.6 |
| 20260831023534 | 59 | 127 | 0.0 | 1.0 | 0.02 | 0.17 | 0.17 | 94 | 1012.7 |
| 20260831023037 | 59 | 127 | 0.0 | 1.0 | 0.03 | 0.17 | 0.17 | 94 | 1012.6 |
| 20260831022534 | 59 | 127 | 0.0 | 1.0 | 0.03 | 0.17 | 0.17 | 94 | 1012.7 |
| 20260831022035 | 59 | 127 | 0.0 | 1.0 | 0.03 | 0.17 | 0.17 | 93 | 1012.7 |
| 20260831021539 | 59 | 127 | 0.0 | 2.0 | 0.03 | 0.17 | 0.17 | 93 | 1012.7 |
| 20260831021034 | 60 | 127 | 1.0 | 2.0 | 0.03 | 0.17 | 0.17 | 92 | 1012.6 |
| 20260831020534 | 60 | 127 | 0.0 | 1.0 | 0.03 | 0.17 | 0.17 | 93 | 1012.6 |
| 20260831020056 | 60 | 127 | 0.0 | 1.0 | 0.03 | 0.17 | 0.17 | 93 | 1012.6 |
| 20260831015533 | 60 | 127 | 0.0 | 2.0 | 0.03 | 0.17 | 0.17 | 93 | 1012.6 |
| 20260831015033 | 61 | 127 | 0.0 | 3.0 | 0.03 | 0.17 | 0.17 | 93 | 1012.7 |
| 20260831014533 | 61 | 138 | 1.0 | 6.0 | 0.03 | 0.17 | 0.17 | 93 | 1012.5 |
| 20260831014033 | 62 | 267 | 1.0 | 6.0 | 0.02 | 0.16 | 0.16 | 94 | 1012.6 |
| 20260831013533 | 62 | 348 | 1.0 | 4.0 | 0.01 | 0.15 | 0.15 | 95 | 1012.6 |
| 20260831013033 | 62 | 49 | 1.0 | 4.0 | 0.00 | 0.14 | 0.14 | 95 | 1012.4 |
| 20260831012533 | 62 | 19 | 0.0 | 2.0 | 0.00 | 0.14 | 0.14 | 95 | 1012.3 |
| 20260831012035 | 62 | 121 | 0.0 | 1.0 | 0.00 | 0.14 | 0.14 | 95 | 1012.1 |
| 20260831011534 | 62 | 121 | 0.0 | 1.0 | 0.00 | 0.14 | 0.14 | 95 | 1012.1 |
| 20260831011033 | 62 | 121 | 0.0 | 1.0 | 0.00 | 0.14 | 0.14 | 95 | 1012.0 |
| 20260831010532 | 62 | 121 | 0.0 | 1.0 | 0.00 | 0.14 | 0.14 | 95 | 1011.9 |
| 20260831010032 | 62 | 121 | 0.0 | 0.0 | 0.00 | 0.14 | 0.14 | 95 | 1011.9 |
| 20260831005532 | 62 | 121 | 0.0 | 2.0 | 0.00 | 0.14 | 0.14 | 95 | 1011.8 |
| 20260831005032 | 62 | 121 | 0.0 | 2.0 | 0.00 | 0.14 | 0.14 | 94 | 1011.8 |
| 20260831004540 | 62 | 323 | 0.0 | 2.0 | 0.00 | 0.14 | 0.14 | 94 | 1011.6 |
| 20260831004033 | 62 | 123 | 0.0 | 2.0 | 0.00 | 0.14 | 0.14 | 94 | 1011.7 |
| 20260831003531 | 62 | 61 | 0.0 | 2.0 | 0.00 | 0.14 | 0.14 | 94 | 1011.6 |
| 20260831003030 | 62 | 121 | 0.0 | 0.0 | 0.00 | 0.14 | 0.14 | 94 | 1011.3 |
| 20260831002530 | 62 | 95 | 0.0 | 0.0 | 0.00 | 0.14 | 0.14 | 94 | 1011.3 |
| 20260831002033 | 63 | 94 | 0.0 | 0.0 | 0.00 | 0.14 | 0.14 | 93 | 1011.3 |
| 20260831001530 | 63 | 94 | 0.0 | 0.0 | 0.00 | 0.14 | 0.14 | 93 | 1011.2 |
| 20260831001030 | 63 | 103 | 0.0 | 2.0 | 0.00 | 0.14 | 0.14 | 93 | 1011.0 |
| 20260831000530 | 63 | 103 | 0.0 | 2.0 | 0.00 | 0.14 | 0.14 | 93 | 1011.1 |
| 20260831000030 | 63 | 93 | 0.0 | 1.0 | 0.00 | 0.14 | 0.14 | 92 | 1010.9 |
| 20260830235530 | 63 | 93 | 0.0 | 1.0 | 0.00 | 0.14 | 0.14 | 92 | 1010.9 |
| 20260830235029 | 63 | 93 | 0.0 | 0.0 | 0.00 | 0.14 | 0.14 | 92 | 1010.8 |
| 20260830234540 | 63 | 93 | 0.0 | 1.0 | 0.00 | 0.14 | 0.14 | 92 | 1010.8 |
| 20260830234029 | 63 | 93 | 0.0 | 1.0 | 0.00 | 0.14 | 0.14 | 92 | 1010.7 |
| 20260830233532 | 64 | 93 | 0.0 | 1.0 | 0.00 | 0.14 | 0.14 | 92 | 1010.7 |
| 20260830233029 | 64 | 92 | 0.0 | 2.0 | 0.00 | 0.14 | 0.14 | 91 | 1010.8 |
| 20260830232530 | 64 | 107 | 0.0 | 2.0 | 0.00 | 0.14 | 0.14 | 91 | 1010.8 |
| 20260830232030 | 64 | 114 | 0.0 | 2.0 | 0.00 | 0.14 | 0.14 | 91 | 1010.8 |
| 20260830231530 | 64 | 143 | 0.0 | 1.0 | 0.00 | 0.14 | 0.14 | 90 | 1010.7 |
| 20260830231129 | 64 | 143 | 0.0 | 2.0 | 0.00 | 0.14 | 0.14 | 90 | 1010.7 |
| 20260830230527 | 64 | 182 | 0.0 | 2.0 | 0.00 | 0.14 | 0.14 | 90 | 1010.6 |
| 20260830230027 | 65 | 182 | 0.0 | 5.0 | 0.00 | 0.14 | 0.14 | 90 | 1010.6 |
| 20260830225527 | 65 | 165 | 0.0 | 5.0 | 0.00 | 0.14 | 0.14 | 90 | 1010.7 |
| 20260830225030 | 65 | 141 | 0.0 | 2.0 | 0.00 | 0.14 | 0.14 | 90 | 1010.7 |
| 20260830224527 | 65 | 111 | 0.0 | 3.0 | 0.00 | 0.14 | 0.14 | 91 | 1010.7 |
| 20260830224028 | 65 | 111 | 1.0 | 3.0 | 0.00 | 0.14 | 0.14 | 90 | 1010.7 |
| 20260830223527 | 65 | 144 | 0.0 | 3.0 | 0.00 | 0.14 | 0.14 | 91 | 1010.7 |
| 20260830223026 | 65 | 144 | 0.0 | 2.0 | 0.00 | 0.14 | 0.14 | 90 | 1010.8 |
| 20260830222525 | 65 | 108 | 0.0 | 2.0 | 0.00 | 0.14 | 0.14 | 91 | 1010.7 |
| 20260830222025 | 65 | 153 | 0.0 | 3.0 | 0.00 | 0.14 | 0.14 | 91 | 1010.7 |
| 20260830221525 | 65 | 95 | 0.0 | 3.0 | 0.00 | 0.14 | 0.14 | 90 | 1010.6 |
| 20260830221025 | 65 | 136 | 1.0 | 3.0 | 0.00 | 0.14 | 0.14 | 90 | 1010.6 |
| 20260830220525 | 65 | 135 | 1.0 | 3.0 | 0.00 | 0.14 | 0.14 | 90 | 1010.6 |
| 20260830220025 | 65 | 147 | 0.0 | 2.0 | 0.00 | 0.14 | 0.14 | 90 | 1010.6 |
| 20260830215525 | 65 | 147 | 0.0 | 2.0 | 0.00 | 0.14 | 0.14 | 89 | 1010.6 |
| 20260830215025 | 65 | 139 | 0.0 | 2.0 | 0.00 | 0.14 | 0.14 | 89 | 1010.6 |
| 20260830214525 | 65 | 141 | 0.0 | 2.0 | 0.00 | 0.14 | 0.14 | 90 | 1010.6 |
| 20260830214026 | 65 | 171 | 1.0 | 3.0 | 0.00 | 0.14 | 0.14 | 90 | 1010.5 |
| 20260830213523 | 65 | 158 | 1.0 | 3.0 | 0.00 | 0.14 | 0.14 | 89 | 1010.5 |
| 20260830213035 | 65 | 132 | 1.0 | 3.0 | 0.00 | 0.14 | 0.14 | 90 | 1010.4 |
| 20260830212523 | 65 | 120 | 1.0 | 3.0 | 0.00 | 0.14 | 0.14 | 90 | 1010.4 |
| 20260830212022 | 65 | 153 | 0.0 | 2.0 | 0.00 | 0.14 | 0.14 | 91 | 1010.3 |
| 20260830211534 | 65 | 156 | 1.0 | 2.0 | 0.00 | 0.14 | 0.14 | 91 | 1010.3 |
| 20260830211023 | 65 | 167 | 0.0 | 2.0 | 0.00 | 0.14 | 0.14 | 91 | 1010.4 |
| 20260830210520 | 65 | 311 | 0.0 | 2.0 | 0.00 | 0.14 | 0.14 | 90 | 1010.4 |
| 20260830210044 | 65 | 90 | 0.0 | 2.0 | 0.00 | 0.14 | 0.14 | 90 | 1010.2 |
| 20260830205525 | 65 | 49 | 0.0 | 3.0 | 0.00 | 0.14 | 0.14 | 90 | 1010.3 |
| 20260830205020 | 65 | 115 | 1.0 | 3.0 | 0.00 | 0.14 | 0.14 | 90 | 1010.2 |
| 20260830204520 | 65 | 162 | 0.0 | 2.0 | 0.00 | 0.14 | 0.14 | 91 | 1010.4 |
| 20260830204020 | 65 | 208 | 0.0 | 4.0 | 0.00 | 0.14 | 0.14 | 91 | 1010.4 |
| 20260830203519 | 65 | 134 | 1.0 | 4.0 | 0.00 | 0.14 | 0.14 | 90 | 1010.2 |
| 20260830203033 | 65 | 333 | 0.0 | 7.0 | 0.00 | 0.14 | 0.14 | 90 | 1010.5 |
| 20260830202519 | 65 | 276 | 1.0 | 7.0 | 0.00 | 0.14 | 0.14 | 89 | 1010.4 |
| 20260830202021 | 65 | 131 | 0.0 | 2.0 | 0.00 | 0.14 | 0.14 | 89 | 1010.2 |
| 20260830201518 | 65 | 238 | 0.0 | 2.0 | 0.00 | 0.14 | 0.14 | 90 | 1010.2 |
| 20260830201018 | 65 | 350 | 0.0 | 2.0 | 0.00 | 0.14 | 0.14 | 89 | 1010.2 |
| 20260830200518 | 65 | 226 | 0.0 | 2.0 | 0.00 | 0.14 | 0.14 | 90 | 1010.2 |
| 20260830200017 | 66 | 287 | 0.0 | 3.0 | 0.00 | 0.14 | 0.14 | 90 | 1010.2 |
| 20260830195517 | 65 | 159 | 0.0 | 5.0 | 0.00 | 0.14 | 0.14 | 90 | 1010.1 |
| 20260830195017 | 65 | 108 | 2.0 | 5.0 | 0.00 | 0.14 | 0.14 | 90 | 1010.2 |
| 20260830194517 | 65 | 200 | 0.0 | 3.0 | 0.00 | 0.14 | 0.14 | 90 | 1010.4 |
| 20260830194017 | 65 | 117 | 0.0 | 3.0 | 0.00 | 0.14 | 0.14 | 90 | 1010.3 |
| 20260830193516 | 65 | 114 | 0.0 | 4.0 | 0.00 | 0.14 | 0.14 | 90 | 1010.3 |
| 20260830193020 | 65 | 148 | 2.0 | 5.0 | 0.01 | 0.14 | 0.14 | 89 | 1010.2 |
| 20260830192514 | 65 | 136 | 1.0 | 4.0 | 0.01 | 0.14 | 0.14 | 90 | 1010.5 |
| 20260830192013 | 66 | 147 | 1.0 | 3.0 | 0.01 | 0.14 | 0.14 | 90 | 1010.5 |
| 20260830191518 | 66 | 135 | 1.0 | 3.0 | 0.01 | 0.14 | 0.14 | 89 | 1010.6 |
| 20260830191013 | 65 | 146 | 0.0 | 3.0 | 0.01 | 0.14 | 0.14 | 89 | 1010.7 |
| 20260830190511 | 66 | 119 | 1.0 | 3.0 | 0.01 | 0.14 | 0.14 | 89 | 1010.8 |
| 20260830190011 | 66 | 198 | 0.0 | 3.0 | 0.01 | 0.14 | 0.14 | 90 | 1010.9 |
| 20260830185511 | 65 | 168 | 0.0 | 2.0 | 0.01 | 0.14 | 0.14 | 90 | 1010.9 |
| 20260830185010 | 65 | 139 | 0.0 | 2.0 | 0.01 | 0.14 | 0.14 | 90 | 1011.0 |
| 20260830184509 | 65 | 103 | 0.0 | 3.0 | 0.01 | 0.14 | 0.14 | 89 | 1011.1 |
| 20260830184008 | 66 | 124 | 1.0 | 3.0 | 0.01 | 0.14 | 0.14 | 88 | 1011.2 |
| 20260830183509 | 66 | 126 | 0.0 | 3.0 | 0.01 | 0.14 | 0.14 | 88 | 1011.3 |
| 20260830183007 | 66 | 132 | 0.0 | 3.0 | 0.00 | 0.13 | 0.13 | 87 | 1011.2 |
| 20260830182509 | 66 | 247 | 0.0 | 4.0 | 0.00 | 0.13 | 0.13 | 85 | 1011.3 |
| 20260830182007 | 66 | 106 | 0.0 | 3.0 | 0.00 | 0.13 | 0.13 | 87 | 1011.3 |
| 20260830181506 | 65 | 138 | 0.0 | 5.0 | 0.00 | 0.13 | 0.13 | 87 | 1011.3 |
| 20260830181005 | 66 | 182 | 1.0 | 5.0 | 0.00 | 0.13 | 0.13 | 88 | 1011.4 |
| 20260830180505 | 66 | 138 | 0.0 | 3.0 | 0.00 | 0.13 | 0.13 | 89 | 1011.5 |
| 20260830180011 | 66 | 144 | 1.0 | 5.0 | 0.00 | 0.13 | 0.13 | 87 | 1011.5 |
| 20260830175504 | 65 | 171 | 1.0 | 5.0 | 0.00 | 0.13 | 0.13 | 86 | 1011.6 |
| 20260830175007 | 65 | 148 | 1.0 | 5.0 | 0.00 | 0.13 | 0.13 | 86 | 1011.7 |
| 20260830174504 | 65 | 98 | 1.0 | 3.0 | 0.00 | 0.13 | 0.13 | 86 | 1011.7 |
| 20260830174008 | 65 | 101 | 1.0 | 3.0 | 0.00 | 0.13 | 0.13 | 85 | 1011.9 |
| 20260830173505 | 65 | 134 | 1.0 | 4.0 | 0.00 | 0.13 | 0.13 | 87 | 1011.9 |
| 20260830173005 | 65 | 186 | 0.0 | 4.0 | 0.00 | 0.13 | 0.13 | 86 | 1011.9 |